Location: G�nzburg
(48.4565°N, 10.3217°E)
Time: 01:38:52
(UTC+01:00)

OTV 5 (USA 277) - Visible Passes

Search period start: 22 January 2018 00:00
Search period end: 01 February 2018 00:00
Orbit: 404 x 417 km, 43.0° (Epoch: 07 September)

Date Brightness Start Highest point End Pass type
(mag) Time Alt. Az. Time Alt. Az. Time Alt. Az.
23 Jan ? 19:17:28 10° SSW 19:18:11 13° S 19:18:11 13° S visible
24 Jan ? 18:27:21 10° S 18:28:42 12° SSE 18:29:40 11° SE visible
25 Jan ? 19:11:39 10° SW 19:13:51 23° S 19:13:51 23° S visible
26 Jan ? 18:20:57 10° SSW 18:23:29 20° SSE 18:25:15 14° ESE visible
26 Jan ? 19:57:15 10° WSW 19:58:01 15° SW 19:58:01 15° SW visible
27 Jan ? 19:06:20 10° WSW 19:09:20 30° S 19:09:24 30° S visible
28 Jan ? 18:15:27 10° SW 18:18:23 27° S 18:20:46 13° ESE visible
28 Jan ? 19:52:15 10° WSW 19:53:32 19° SW 19:53:32 19° SW visible
29 Jan ? 19:01:15 10° WSW 19:04:17 32° S 19:04:55 29° SSE visible
30 Jan ? 18:10:16 10° WSW 18:13:20 32° S 18:16:20 10° ESE visible
30 Jan ? 19:47:25 10° WSW 19:49:06 20° SW 19:49:06 20° SW visible
31 Jan ? 18:56:19 10° WSW 18:59:14 27° SSW 19:00:34 21° SSE visible
